Terminal Aerodrome Forecast
Issued by NWS

Home | Current Version | Previous Version | Text Only | Print | Product List | Glossary On
Versions: 1 2 3 4 5 6 7 8 9 10 11 12 13 14 15
000
FTUS42 KTAE 191120
TAFVLD
TAF
KVLD 191120Z 1912/2012 00000KT 4SM BR BKN003
     FM191400 35005KT P6SM FEW035
     FM192000 25005KT P6SM VCTS SCT040CB=

USA.gov is the U.S. government's official web portal to all federal, state and local government web resources and services.